Location: Chariton
(41.0140°N, 93.3060°W)
Time: 09:27:28
(UTC-06:00)

Amateur Radio Satellites - All Passes

Search period start: 23 January 2018 08:57
Search period end: 24 January 2018 08:57
Location: Chariton, 41.0140°N, 93.3060°W

Satellite Date Start Highest point End Downlink Frequencies (MHz)
Time Altitude Azimuth
SEEDS 23 Jan 08:57:31 08:59:06 12° 297° (WNW) 09:00:40 437.485
HO-68 23 Jan 09:02:45 09:08:06 23° 302° (WNW) 09:13:27 435.675
Oscar 11 23 Jan 09:09:39 09:13:51 51° 287° (WNW) 09:18:00 .
PCSat 23 Jan 09:10:50 09:16:09 61° 115° (ESE) 09:21:30 145.827
PRISM 23 Jan 09:31:01 09:34:37 31° 70° (ENE) 09:38:13 437.425
BEESAT 2 23 Jan 09:52:04 09:56:01 64° 119° (ESE) 10:00:02 435.950
TIGRISAT 23 Jan 09:53:33 09:57:35 34° 263° (W) 10:01:44 435.000
RS-15 23 Jan 09:58:19 10:09:48 43° 320° (NW) 10:21:06 29.354- 29.394
POLYITAN 1 23 Jan 10:02:07 10:02:43 10° 61° (ENE) 10:03:20 437.675
UNISAT 6 23 Jan 10:10:27 10:13:49 21° 267° (W) 10:17:17 437.425
YUBILEINY 23 Jan 10:12:09 10:20:56 86° 83° (E) 10:29:37 435.215
O/OREOS (USA 219) 23 Jan 10:12:22 10:16:48 66° 252° (WSW) 10:21:15 437.305
NANOSAT C BR1 23 Jan 10:13:51 10:15:36 12° 63° (ENE) 10:17:20 145.865
DELFI C3 23 Jan 10:14:44 10:18:31 46° 286° (WNW) 10:22:16 145.870
AIST 2D 23 Jan 10:17:24 10:20:45 43° 74° (ENE) 10:24:06 435.315
Max Valier Satellite 23 Jan 10:19:40 10:23:19 59° 285° (WNW) 10:26:55 145.860
QB50P2 23 Jan 10:29:02 10:32:22 23° 67° (ENE) 10:35:43 145.880/145.840
EO-88 23 Jan 10:31:46 10:35:22 66° 284° (WNW) 10:38:57 145.990 - 145.960
BEESAT 3 23 Jan 10:36:58 10:39:18 15° 317° (NW) 10:41:38 437.485
DUCHIFAT 1 23 Jan 10:53:45 10:57:21 28° 69° (ENE) 11:00:59 145.980
PCSat 23 Jan 10:55:46 10:59:58 22° 314° (NW) 11:04:10 145.827
EO-79 23 Jan 10:58:08 11:02:06 42° 72° (ENE) 11:06:07 145.935-145.965
PRISM 23 Jan 11:06:56 11:09:55 20° 266° (W) 11:12:54 437.425
AO-85 23 Jan 11:17:21 11:21:14 62° 119° (ESE) 11:25:24 145.980
BEESAT 2 23 Jan 11:31:43 11:34:08 15° 317° (NW) 11:36:35 435.950
POLYITAN 1 23 Jan 11:33:36 11:37:50 77° 257° (WSW) 11:42:08 437.675
LO-87 23 Jan 11:42:00 11:45:38 75° 284° (WNW) 11:49:14 145.935 - 145.965
BUGSAT 1 23 Jan 11:44:23 11:47:37 23° 67° (ENE) 11:50:54 437.445
NANOSAT C BR1 23 Jan 11:46:35 11:50:44 61° 259° (WSW) 11:54:57 145.865
ESTCUBE 1 23 Jan 11:48:42 11:53:13 84° 106° (ESE) 11:57:40 437.505/2401.250
Oscar 19 23 Jan 11:49:36 11:53:27 21° 64° (ENE) 11:57:19 437.125/150
AO-91 23 Jan 11:52:38 11:54:24 14° 65° (ENE) 11:56:12 145.960
AIST 2D 23 Jan 11:53:34 11:54:07 10° 269° (W) 11:54:40 435.315
Gurwin Techsat 1B 23 Jan 11:58:11 12:01:56 20° 63° (ENE) 12:05:42 435.225
QB50P2 23 Jan 12:04:14 12:07:58 30° 263° (W) 12:11:45 145.880/145.840
YUBILEINY 23 Jan 12:11:00 12:16:30 19° 282° (WNW) 12:22:00 435.215
RS-15 23 Jan 12:17:55 12:26:48 22° 353° (N) 12:35:27 29.354- 29.394
DUCHIFAT 1 23 Jan 12:29:33 12:32:57 24° 265° (W) 12:36:24 145.980
EO-79 23 Jan 12:35:23 12:38:02 16° 268° (W) 12:40:43 145.935-145.965
SPROUT 23 Jan 12:46:41 12:51:01 86° 105° (ESE) 12:55:18 437.525
AO-85 23 Jan 12:59:31 13:02:06 16° 320° (NW) 13:04:49 145.980
SO-50 23 Jan 13:02:57 13:07:23 39° 51° (NE) 13:11:52 436.795
VELOX 1 23 Jan 13:11:52 13:16:17 84° 105° (ESE) 13:20:40 145.980
AO-7 23 Jan 13:18:04 13:24:56 30° 56° (NE) 13:31:49 .
BUGSAT 1 23 Jan 13:19:17 13:22:48 28° 264° (W) 13:26:25 437.445
DX 1 23 Jan 13:19:50 13:22:53 19° 94° (E) 13:25:56 434.975-435.025
Oscar 19 23 Jan 13:27:23 13:32:24 49° 260° (W) 13:37:27 437.125/150
AO-91 23 Jan 13:27:33 13:30:35 31° 263° (W) 13:33:45 145.960
ESTCUBE 1 23 Jan 13:28:48 13:29:17 10° 300° (WNW) 13:29:47 437.505/2401.250
Gurwin Techsat 1B 23 Jan 13:36:15 13:41:26 55° 260° (W) 13:46:40 435.225
50 SAT 23 Jan 13:41:50 13:44:27 24° 97° (E) 13:47:01 437.505
BEESAT 23 Jan 14:31:22 14:32:40 11° 90° (E) 14:33:58 436.000
RS-15 23 Jan 14:34:32 14:44:41 31° 28° (NNE) 14:54:21 29.354- 29.394
UKube-1 23 Jan 14:36:40 14:41:00 80° 104° (ESE) 14:45:18 .
ITAMSAT 1 23 Jan 14:40:03 14:44:53 43° 70° (ENE) 14:49:46 435.822/435.867
SO-50 23 Jan 14:43:47 14:47:40 25° 247° (WSW) 14:51:34 436.795
DX 1 23 Jan 14:55:09 14:59:12 38° 289° (WNW) 15:03:13 434.975-435.025
M-CUBED/EXP-1 PRIME 23 Jan 14:59:59 15:02:43 17° 62° (ENE) 15:05:22 437.505
AO-7 23 Jan 15:08:46 15:17:03 68° 255° (WSW) 15:25:26 .
DOVE 4 23 Jan 15:11:28 15:14:18 18° 67° (ENE) 15:17:06 437.250
50 SAT 23 Jan 15:14:08 15:15:55 14° 292° (WNW) 15:17:42 437.505
ITUPSAT 1 23 Jan 15:28:39 15:33:16 44° 99° (E) 15:37:50 437.325
MOZHAYETS 4 23 Jan 15:31:13 15:35:52 89° 86° (E) 15:40:28
NO-84 23 Jan 15:36:00 15:38:55 32° 132° (SE) 15:41:40 435.350 FM
CUBESAT XI-V 23 Jan 15:42:35 15:46:35 29° 96° (E) 15:50:33 437.345
BEESAT 23 Jan 16:06:09 16:10:58 76° 285° (WNW) 16:15:43 436.000
UKube-1 23 Jan 16:15:51 16:16:20 10° 300° (WNW) 16:16:49 .
XW-2B 23 Jan 16:20:15 16:21:48 12° 65° (ENE) 16:23:21 145.730 - 145.750
ITAMSAT 1 23 Jan 16:20:29 16:24:31 23° 266° (W) 16:28:33 435.822/435.867
M-CUBED/EXP-1 PRIME 23 Jan 16:32:44 16:36:50 43° 255° (WSW) 16:40:42 437.505
CUTE-I 23 Jan 16:35:42 16:39:45 23° 64° (ENE) 16:43:48 437.470
KKS-1 23 Jan 16:39:29 16:42:11 16° 92° (E) 16:44:52 437.445
RS-15 23 Jan 16:47:26 16:59:15 81° 57° (ENE) 17:10:23 29.354- 29.394
DOVE 4 23 Jan 16:47:48 16:51:44 37° 262° (W) 16:55:37 437.250
XW-2C 23 Jan 16:48:53 16:52:06 26° 70° (ENE) 16:55:20 145.795 - 145.815
LilacSat-2 23 Jan 16:50:28 16:53:51 30° 71° (ENE) 16:57:15 437.200
CUTE 1.7 + AOD 2 23 Jan 16:57:35 16:58:26 11° 62° (ENE) 16:59:18 437.475
ITUPSAT 1 23 Jan 17:07:12 17:10:45 21° 296° (WNW) 17:14:19 437.325
AO-7 23 Jan 17:08:57 17:11:16 11° 273° (W) 17:13:35 .
MOZHAYETS 4 23 Jan 17:12:00 17:12:16 10° 300° (WNW) 17:12:31
NO-84 23 Jan 17:13:35 17:16:06 23° 327° (NNW) 17:18:32 435.350 FM
BEESAT 3 23 Jan 17:14:10 17:17:47 34° 51° (NE) 17:21:19 437.485
KAITUO 1B 23 Jan 17:14:39 17:18:07 37° 72° (ENE) 17:21:36 145.475/437.950
NUDT-PHONESAT 23 Jan 17:19:49 17:23:19 39° 73° (ENE) 17:26:49 437.300
CUBESAT XI-V 23 Jan 17:19:58 17:23:52 27° 292° (WNW) 17:27:43 437.345
XW-2F 23 Jan 17:21:32 17:25:18 62° 75° (ENE) 17:29:03 145.980 - 146.000
XW-2D 23 Jan 17:33:56 17:37:45 80° 258° (WSW) 17:41:35 145.860 - 145.880
CUBEBUG 2 23 Jan 17:38:56 17:42:13 21° 66° (ENE) 17:45:35 437.445
UWE-3 23 Jan 17:39:31 17:41:15 12° 61° (ENE) 17:43:00 435.000/436.395/437.385
HO-68 23 Jan 17:42:02 17:48:54 52° 67° (ENE) 17:55:47 435.675
XW-2B 23 Jan 17:51:48 17:55:31 49° 260° (W) 17:59:14 145.730 - 145.750
PCSat 23 Jan 17:58:48 18:04:03 47° 55° (NE) 18:09:16 145.827
AO-85 23 Jan 18:09:33 18:11:03 11° 35° (NE) 18:12:34 145.980
BEESAT 2 23 Jan 18:09:43 18:13:26 35° 51° (NE) 18:17:06 435.950
SEEDS 23 Jan 18:10:56 18:14:52 39° 72° (ENE) 18:18:47 437.485
CUTE-I 23 Jan 18:14:21 18:19:27 47° 260° (W) 18:24:35 437.470
KKS-1 23 Jan 18:14:40 18:18:59 48° 288° (WNW) 18:23:15 437.445
STRAND 1 23 Jan 18:19:38 18:20:35 10° 88° (E) 18:21:31 437.568
STARS 23 Jan 18:21:25 18:25:52 78° 104° (ESE) 18:30:17 437.465
XW-2C 23 Jan 18:23:20 18:26:14 21° 266° (W) 18:29:09 145.795 - 145.815
LilacSat-2 23 Jan 18:25:27 18:28:09 18° 266° (W) 18:30:53 437.200
XW-2A 23 Jan 18:26:11 18:28:24 16° 68° (ENE) 18:30:37 145.665 - 145.685
CUTE 1.7 + AOD 2 23 Jan 18:29:23 18:33:39 74° 259° (W) 18:37:54 437.475
Oscar 11 23 Jan 18:30:57 18:32:23 11° 62° (ENE) 18:33:49 .
nSIGHT-1 23 Jan 18:36:39 18:39:00 19° 133° (SE) 18:41:22 .
KAITUO 1B 23 Jan 18:50:09 18:52:13 14° 268° (W) 18:54:17 145.475/437.950
BEESAT 3 23 Jan 18:52:11 18:55:03 20° 248° (WSW) 18:57:54 437.485
NUDT-PHONESAT 23 Jan 18:55:32 18:57:18 13° 268° (W) 18:59:05 437.300
RS-15 23 Jan 19:01:25 19:10:13 27° 259° (WSW) 19:18:44 29.354- 29.394
ISS 23 Jan 19:02:25 19:05:07 24° 134° (SE) 19:07:49 437.550
UWE-3 23 Jan 19:12:35 19:17:01 73° 259° (WSW) 19:21:37 435.000/436.395/437.385
CUBEBUG 2 23 Jan 19:14:25 19:18:32 38° 263° (W) 19:22:47 437.445
AAUSAT CUBESAT 2 23 Jan 19:17:55 19:22:03 84° 257° (WSW) 19:26:11 437.432
ZACube-1 23 Jan 19:28:57 19:33:26 88° 71° (ENE) 19:38:00 437.345
HO-68 23 Jan 19:30:45 19:36:51 30° 265° (W) 19:42:59 435.675
FO-29 23 Jan 19:31:01 19:35:08 23° 94° (E) 19:39:19 435.910
AO-73 23 Jan 19:33:41 19:38:10 87° 74° (ENE) 19:42:44 145.935
PCSat 23 Jan 19:42:50 19:47:07 24° 253° (WSW) 19:51:24 145.827
AO-85 23 Jan 19:47:35 19:52:27 56° 54° (NE) 19:57:38 145.980
BEESAT 2 23 Jan 19:47:56 19:50:54 20° 248° (WSW) 19:53:50 435.950
SEEDS 23 Jan 19:47:57 19:50:41 17° 268° (W) 19:53:26 437.485
STRAND 1 23 Jan 19:55:13 20:00:24 87° 278° (W) 20:05:32 437.568
XW-2A 23 Jan 19:57:56 20:00:52 26° 264° (W) 20:03:48 145.665 - 145.685
STARS 23 Jan 20:00:26 20:01:32 11° 299° (WNW) 20:02:38 437.465
Oscar 11 23 Jan 20:03:34 20:07:54 71° 259° (WSW) 20:12:16 .
nSIGHT-1 23 Jan 20:11:55 20:14:57 44° 329° (NNW) 20:18:01 .
ISS 23 Jan 20:38:22 20:41:27 39° 331° (NNW) 20:44:34 437.550
Max Valier Satellite 23 Jan 20:57:33 21:01:11 53° 75° (ENE) 21:04:51 145.860
DELFI C3 23 Jan 20:58:59 21:02:53 89° 74° (ENE) 21:06:48 145.870
EO-88 23 Jan 21:08:34 21:12:04 46° 74° (ENE) 21:15:35 145.990 - 145.960
FO-29 23 Jan 21:15:37 21:20:25 39° 290° (WNW) 21:25:18 435.910
YUBILEINY 23 Jan 21:19:35 21:25:23 20° 78° (ENE) 21:31:09 435.215
AO-85 23 Jan 21:28:52 21:32:35 21° 249° (WSW) 21:36:25 145.980
STRAND 1 23 Jan 21:37:06 21:38:45 12° 302° (WNW) 21:40:25 437.568
TIGRISAT 23 Jan 21:44:25 21:49:01 50° 99° (E) 21:53:32 435.000
nSIGHT-1 23 Jan 21:49:53 21:51:44 14° 348° (NNW) 21:53:34 .
UNISAT 6 23 Jan 22:00:33 22:05:17 83° 103° (ESE) 22:09:58 437.425
NO-84 23 Jan 22:08:37 22:10:51 21° 32° (NNE) 22:13:06 435.350 FM
ISS 23 Jan 22:16:42 22:18:37 14° 350° (N) 22:20:31 437.550
LO-87 23 Jan 22:17:21 22:20:39 37° 73° (ENE) 22:24:00 145.935 - 145.965
EO-88 23 Jan 22:45:02 22:45:56 11° 269° (W) 22:46:50 145.990 - 145.960
PRISM 23 Jan 22:46:41 22:50:40 52° 100° (E) 22:54:40 437.425
O/OREOS (USA 219) 23 Jan 22:47:31 22:49:52 14° 99° (E) 22:52:13 437.305
ESTCUBE 1 23 Jan 22:47:33 22:52:04 74° 75° (ENE) 22:56:35 437.505/2401.250
YUBILEINY 23 Jan 23:12:10 23:21:01 83° 278° (W) 23:29:52 435.215
AIST 2D 23 Jan 23:14:56 23:18:20 54° 99° (E) 23:21:43 435.315
POLYITAN 1 23 Jan 23:19:22 23:22:16 17° 93° (E) 23:25:07 437.675
TIGRISAT 23 Jan 23:22:09 23:25:16 18° 296° (WNW) 23:28:21 435.000
nSIGHT-1 23 Jan 23:27:13 23:28:54 13° 9° (N) 23:30:35 .
NANOSAT C BR1 23 Jan 23:31:26 23:34:40 21° 94° (E) 23:37:52 145.865
SPROUT 23 Jan 23:39:16 23:43:27 62° 74° (ENE) 23:47:40 437.525
UNISAT 6 23 Jan 23:39:46 23:41:16 11° 299° (WNW) 23:42:46 437.425
NO-84 23 Jan 23:45:26 23:48:01 31° 228° (SW) 23:50:40 435.350 FM
QB50P2 23 Jan 23:48:28 23:52:33 41° 98° (E) 23:56:35 145.880/145.840
LO-87 23 Jan 23:52:39 23:54:12 12° 268° (W) 23:55:47 145.935 - 145.965
ISS 23 Jan 23:54:09 23:56:07 15° 11° (N) 23:58:05 437.550
VELOX 1 24 Jan 00:08:28 00:12:49 71° 75° (ENE) 00:17:12 145.980
DUCHIFAT 1 24 Jan 00:12:25 00:16:35 51° 100° (E) 00:20:42 145.980
DX 1 24 Jan 00:15:36 00:18:23 17° 64° (ENE) 00:21:09 434.975-435.025
EO-79 24 Jan 00:17:58 00:22:16 81° 102° (ESE) 00:26:32 145.935-145.965
PRISM 24 Jan 00:23:30 00:25:29 13° 296° (WNW) 00:27:29 437.425
O/OREOS (USA 219) 24 Jan 00:24:22 00:28:47 53° 295° (WNW) 00:33:12 437.305
ESTCUBE 1 24 Jan 00:28:53 00:29:21 10° 271° (W) 00:29:47 437.505/2401.250
POLYITAN 1 24 Jan 00:54:10 00:58:11 40° 289° (WNW) 01:02:10 437.675
BUGSAT 1 24 Jan 01:00:17 01:04:16 38° 98° (E) 01:08:14 437.445
nSIGHT-1 24 Jan 01:02:48 01:05:46 35° 29° (NNE) 01:08:43 .
NANOSAT C BR1 24 Jan 01:06:34 01:10:25 33° 290° (WNW) 01:14:12 145.865
YUBILEINY 24 Jan 01:13:48 01:19:14 17° 299° (WNW) 01:24:43 435.215
AO-91 24 Jan 01:15:06 01:19:33 42° 99° (E) 01:24:22 145.960
SPROUT 24 Jan 01:18:30 01:19:43 11° 270° (W) 01:20:56 437.525
QB50P2 24 Jan 01:25:07 01:28:00 18° 295° (WNW) 01:30:51 145.880/145.840
ISS 24 Jan 01:30:06 01:33:15 42° 30° (NNE) 01:36:22 437.550
UKube-1 24 Jan 01:30:29 01:34:44 65° 74° (ENE) 01:39:00 .
50 SAT 24 Jan 01:36:37 01:39:38 56° 259° (W) 01:42:41 437.505
BEESAT 24 Jan 01:37:08 01:39:38 14° 61° (ENE) 01:42:09 436.000
Oscar 19 24 Jan 01:38:50 01:43:57 59° 101° (E) 01:49:00 437.125/150
DUCHIFAT 1 24 Jan 01:49:26 01:51:47 15° 296° (WNW) 01:54:07 145.980
DX 1 24 Jan 01:50:03 01:54:11 45° 260° (W) 01:58:21 434.975-435.025
Gurwin Techsat 1B 24 Jan 01:52:23 01:57:40 59° 102° (ESE) 02:02:53 435.225
FALCONSAT 3 24 Jan 02:02:57 02:04:49 13° 156° (SSE) 02:06:42 435.103
MOZHAYETS 4 24 Jan 02:32:25 02:37:02 83° 75° (ENE) 02:41:43
ITUPSAT 1 24 Jan 02:34:59 02:39:35 50° 72° (ENE) 02:44:14 437.325
BUGSAT 1 24 Jan 02:36:21 02:39:19 19° 294° (WNW) 02:42:16 437.445
nSIGHT-1 24 Jan 02:39:07 02:41:50 26° 225° (SW) 02:44:32 .
CUBESAT XI-V 24 Jan 02:45:33 02:49:34 29° 69° (ENE) 02:53:35 437.345
AO-91 24 Jan 02:52:14 02:55:46 22° 292° (WNW) 02:59:31 145.960
ITAMSAT 1 24 Jan 02:54:17 02:57:10 15° 91° (E) 03:00:03 435.822/435.867
ISS 24 Jan 03:06:56 03:09:32 22° 226° (SW) 03:12:08 437.550
UKube-1 24 Jan 03:10:07 03:11:08 11° 270° (W) 03:12:11 .
AO-7 24 Jan 03:10:41 03:18:32 43° 100° (E) 03:26:18 .
BEESAT 24 Jan 03:12:06 03:16:49 67° 258° (WSW) 03:21:36 436.000
Oscar 19 24 Jan 03:19:21 03:22:47 18° 298° (WNW) 03:26:10 437.125/150
SO-50 24 Jan 03:20:18 03:21:34 11° 107° (ESE) 03:22:51 436.795
Gurwin Techsat 1B 24 Jan 03:33:30 03:37:06 19° 298° (WNW) 03:40:42 435.225
KKS-1 24 Jan 03:37:49 03:40:22 15° 63° (ENE) 03:42:55 437.445
FALCONSAT 3 24 Jan 03:40:04 03:43:18 29° 171° (S) 03:46:33 435.103
ITUPSAT 1 24 Jan 04:14:36 04:17:40 17° 268° (W) 04:20:47 437.325
CUBESAT XI-V 24 Jan 04:22:49 04:26:51 28° 265° (W) 04:30:54 437.345
ITAMSAT 1 24 Jan 04:31:53 04:37:04 66° 287° (WNW) 04:42:13 435.822/435.867
DOVE 4 24 Jan 04:45:15 04:49:36 51° 100° (E) 04:54:11 437.250
SO-50 24 Jan 04:56:55 05:01:21 76° 304° (WNW) 05:05:53 436.795
AO-7 24 Jan 05:03:28 05:11:15 45° 298° (WNW) 05:19:01 .
XW-2D 24 Jan 05:09:23 05:09:36 10° 90° (E) 05:09:50 145.860 - 145.880
KKS-1 24 Jan 05:12:09 05:16:28 53° 260° (W) 05:20:48 437.445
STARS 24 Jan 05:17:26 05:21:45 67° 74° (ENE) 05:26:06 437.465
FALCONSAT 3 24 Jan 05:18:40 05:21:58 32° 186° (S) 05:25:17 435.103
XW-2B 24 Jan 05:25:10 05:27:32 16° 93° (E) 05:29:52 145.730 - 145.750
STRAND 1 24 Jan 05:34:11 05:37:22 17° 62° (ENE) 05:40:32 437.568
M-CUBED/EXP-1 PRIME 24 Jan 05:45:16 05:48:30 53° 291° (WNW) 05:51:39 437.505
FO-29 24 Jan 05:45:48 05:48:25 13° 59° (ENE) 05:50:54 435.910
XW-2C 24 Jan 05:54:49 05:58:20 37° 98° (E) 06:01:49 145.795 - 145.815
LilacSat-2 24 Jan 05:57:19 06:00:57 44° 99° (E) 06:04:32 437.200
CUTE 1.7 + AOD 2 24 Jan 06:15:07 06:18:05 19° 93° (E) 06:21:03 437.475
KAITUO 1B 24 Jan 06:19:05 06:22:42 52° 100° (E) 06:26:17 145.475/437.950
NUDT-PHONESAT 24 Jan 06:23:08 06:26:45 55° 100° (E) 06:30:19 437.300
DOVE 4 24 Jan 06:24:15 06:26:56 16° 294° (WNW) 06:29:42 437.250
XW-2F 24 Jan 06:27:19 06:31:04 87° 279° (W) 06:34:45 145.980 - 146.000
CUTE-I 24 Jan 06:31:05 06:36:25 69° 102° (ESE) 06:41:43 437.470
XW-2D 24 Jan 06:40:25 06:44:03 51° 286° (WNW) 06:47:41 145.860 - 145.880
SO-50 24 Jan 06:40:41 06:42:37 12° 324° (NW) 06:44:33 436.795
HO-68 24 Jan 06:57:03 07:04:05 55° 101° (E) 07:11:04 435.675
STARS 24 Jan 06:57:34 06:58:31 11° 270° (W) 06:59:28 437.465
FALCONSAT 3 24 Jan 06:58:04 07:00:31 17° 201° (SSW) 07:02:57 435.103
XW-2B 24 Jan 06:58:24 07:01:46 32° 289° (WNW) 07:05:07 145.730 - 145.750
AAUSAT CUBESAT 2 24 Jan 07:01:12 07:03:32 15° 92° (E) 07:05:52 437.432
AO-7 24 Jan 07:01:15 07:01:51 10° 320° (NW) 07:02:27 .
UWE-3 24 Jan 07:02:43 07:06:31 24° 94° (E) 07:10:15 435.000/436.395/437.385
CUBEBUG 2 24 Jan 07:04:43 07:09:18 46° 98° (E) 07:13:49 437.445
RS-15 24 Jan 07:08:48 07:20:36 55° 111° (ESE) 07:32:15 29.354- 29.394
STRAND 1 24 Jan 07:10:58 07:16:00 62° 259° (W) 07:21:04 437.568
ZACube-1 24 Jan 07:18:23 07:21:29 18° 92° (E) 07:24:32 437.345
XW-2A 24 Jan 07:19:41 07:21:50 16° 94° (E) 07:23:58 145.665 - 145.685
AO-73 24 Jan 07:22:50 07:25:51 17° 91° (E) 07:28:48 145.935
FO-29 24 Jan 07:26:03 07:32:47 80° 75° (ENE) 07:38:43 435.910
SEEDS 24 Jan 07:29:48 07:33:58 80° 103° (ESE) 07:38:07 437.485
XW-2C 24 Jan 07:30:03 07:32:10 15° 294° (WNW) 07:34:16 145.795 - 145.815
LilacSat-2 24 Jan 07:33:05 07:34:48 13° 295° (WNW) 07:36:31 437.200
CUTE 1.7 + AOD 2 24 Jan 07:50:10 07:54:00 35° 289° (WNW) 07:57:49 437.475
Oscar 11 24 Jan 07:51:31 07:54:49 21° 94° (E) 07:58:05 .
KAITUO 1B 24 Jan 07:55:23 07:56:10 11° 296° (WNW) 07:56:57 145.475/437.950
CUTE-I 24 Jan 08:12:39 08:15:52 16° 299° (WNW) 08:19:05 437.470
AAUSAT CUBESAT 2 24 Jan 08:35:18 08:39:11 42° 287° (WNW) 08:43:03 437.432
DELFI C3 24 Jan 08:37:56 08:39:00 11° 90° (E) 08:40:03 145.870
UWE-3 24 Jan 08:38:48 08:42:58 33° 290° (WNW) 08:47:05 435.000/436.395/437.385
BEESAT 3 24 Jan 08:39:46 08:43:42 62° 119° (ESE) 08:47:39 437.485
PCSat 24 Jan 08:40:14 08:45:19 44° 112° (ESE) 08:50:26 145.827
CUBEBUG 2 24 Jan 08:42:09 08:45:32 20° 295° (WNW) 08:48:53 437.445
TIGRISAT 24 Jan 08:42:39 08:46:49 41° 71° (ENE) 08:51:08 435.000
HO-68 24 Jan 08:45:25 08:51:25 30° 299° (WNW) 08:57:23 435.675
XW-2A 24 Jan 08:51:44 08:54:31 25° 289° (WNW) 08:57:16 145.665 - 145.685
